Volver al catálogo

STARLINK-11192

ActivoComunicacionesVLEO
NORAD 60308·PAYLOAD·🇺🇸 United States

Lanzado Jul 28, 2024 desde Vandenberg Space Force Base

Loading…

Próximos Pases (próximas 24 horas)

TLE

ActualizadoSource: CelesTrak SupGP

Época: Sep 14, 2026, 22:30 UTC

1 60308C 24133H   26257.93798611  .00024550  00000+0  20225-3 0  2572
2 60308  53.1570 293.1710 0001298  81.8683 125.1146 15.69694416    19

Sigue STARLINK-11192 en tiempo real con AllMySat

Download on the App Store